Yankton, SD

5:32 AM CST on November 23, 2017 (GMT -0600)
Gurney Municipal

Weather History for KYKN - March, 2013

Change the Weather History Date:

Saturday, March 16, 2013

  Actual Average Record
Temperature  
Mean Temperature 24 °F -  
Max Temperature 30 °F 44 °F 82 °F (2012)
Min Temperature 19 °F 22 °F -2 °F (1949)
Degree Days  
Heating Degree Days 40    
Moisture  
Dew Point 17 °F    
Average Humidity 73    
Maximum Humidity 86    
Minimum Humidity 55    
Precipitation  
Precipitation 0.00 in - - ()
Sea Level Pressure  
Sea Level Pressure 30.13 in    
Wind  
Wind Speed 17 mph (NNW)    
Max Wind Speed 25 mph    
Max Gust Speed 33 mph    
Visibility 10 miles    
Events      
Averages and records for this station are not official NWS values.
T = Trace of Precipitation, MM = Missing Value Source: NWS Daily Summary

Daily Weather History Graph

Daily Weather History Graph

Search for Another Location

Airport or City:

Trip Planner

Search our weather history database for the weather conditions in past years. The results will help you decide how hot, cold, wet, or windy it might be!

Date:

Astronomy

Mar. 16, 2013 Rise Set
Actual Time 7:39 AM CDT 7:37 PM CDT
Civil Twilight 7:11 AM CDT 8:05 PM CDT
Nautical Twilight 6:38 AM CDT 8:38 PM CDT
Astronomical Twilight 6:04 AM CDT 9:12 PM CDT
Moon 10:02 AM CDT (3/16) No Moon Set
Length of Visible Light 12h 54m
Length of Day
11h 58m
Waxing Crescent, 23% of the Moon is Illuminated
Mar 16
Waxing Crescent
Mar 19
First Quarter
Mar 27
Full
Apr 2
Last Quarter
Apr 10
New

Hourly Weather History & Observations

Time (CDT) Temp. Windchill Dew Point Humidity Pressure Visibility Wind Dir Wind Speed Gust Speed Precip Events Conditions
12:55 AM 28.4 °F 14.4 °F 24.8 °F 86% 29.96 in 9.0 mi NW 23.0 mph 28.8 mph N/A   Overcast
1:35 AM 28.4 °F 16.2 °F 23.0 °F 80% 29.97 in 10.0 mi NW 17.3 mph 24.2 mph N/A   Overcast
1:55 AM 28.4 °F 15.4 °F 21.2 °F 74% 29.99 in 10.0 mi WNW 19.6 mph 28.8 mph N/A   Overcast
2:15 AM 26.6 °F 13.8 °F 23.0 °F 86% 30.01 in 10.0 mi WNW 17.3 mph - N/A   Overcast
2:35 AM 26.6 °F 13.1 °F 21.2 °F 80% 30.01 in 10.0 mi NW 19.6 mph 26.5 mph N/A   Overcast
2:55 AM 24.8 °F 9.3 °F 19.4 °F 80% 30.02 in 10.0 mi NW 24.2 mph 33.4 mph N/A   Overcast
3:15 AM 24.8 °F 10.3 °F 21.2 °F 86% 30.03 in 10.0 mi NW 20.7 mph 27.6 mph N/A   Overcast
3:35 AM 24.8 °F 9.0 °F 19.4 °F 80% 30.04 in 10.0 mi NW 25.3 mph 31.1 mph N/A   Overcast
3:55 AM 23.0 °F 6.6 °F 19.4 °F 86% 30.05 in 10.0 mi NW 25.3 mph 32.2 mph N/A   Overcast
4:15 AM 23.0 °F 7.6 °F 19.4 °F 86% 30.06 in 10.0 mi NNW 21.9 mph 27.6 mph N/A   Overcast
4:35 AM 21.2 °F 4.9 °F 17.6 °F 86% 30.07 in 10.0 mi NNW 23.0 mph 31.1 mph N/A   Overcast
4:55 AM 21.2 °F 5.6 °F 17.6 °F 86% 30.08 in 10.0 mi NW 20.7 mph 27.6 mph N/A   Overcast
5:15 AM 21.2 °F 6.4 °F 17.6 °F 86% 30.08 in 10.0 mi NW 18.4 mph 26.5 mph N/A   Overcast
5:35 AM 21.2 °F 5.2 °F 15.8 °F 80% 30.10 in 10.0 mi NW 21.9 mph 25.3 mph N/A   Overcast
5:55 AM 21.2 °F 6.4 °F 17.6 °F 86% 30.11 in 10.0 mi NW 18.4 mph 26.5 mph N/A   Overcast
6:15 AM 19.4 °F 2.8 °F 15.8 °F 86% 30.13 in 10.0 mi NW 21.9 mph 28.8 mph N/A   Overcast
6:35 AM 19.4 °F 4.1 °F 15.8 °F 86% 30.13 in 10.0 mi NNW 18.4 mph 25.3 mph N/A   Overcast
7:15 AM 19.4 °F 2.8 °F 15.8 °F 86% 30.15 in 10.0 mi NNW 21.9 mph 28.8 mph N/A   Overcast
7:35 AM 19.4 °F 3.2 °F 15.8 °F 86% 30.15 in 10.0 mi NNW 20.7 mph 24.2 mph N/A   Overcast
7:55 AM 19.4 °F 3.6 °F 15.8 °F 86% 30.16 in 10.0 mi NNW 19.6 mph 24.2 mph N/A   Overcast
8:15 AM 19.4 °F 4.1 °F 15.8 °F 86% 30.16 in 10.0 mi NNW 18.4 mph 24.2 mph N/A   Overcast
8:35 AM 19.4 °F 3.6 °F 15.8 °F 86% 30.17 in 10.0 mi NW 19.6 mph - N/A   Overcast
8:55 AM 19.4 °F 5.5 °F 15.8 °F 86% 30.17 in 10.0 mi NNW 15.0 mph - N/A   Overcast
9:15 AM 19.4 °F 5.5 °F 14.0 °F 80% 30.18 in 10.0 mi NNW 15.0 mph 19.6 mph N/A   Overcast
9:35 AM 19.4 °F 5.5 °F 12.2 °F 74% 30.17 in 10.0 mi NW 15.0 mph - N/A   Overcast
9:55 AM 19.4 °F 5.0 °F 12.2 °F 74% 30.17 in 10.0 mi NNW 16.1 mph - N/A   Overcast
10:15 AM 19.4 °F 6.6 °F 12.2 °F 74% 30.18 in 10.0 mi North 12.7 mph - N/A   Overcast
10:35 AM 19.4 °F 6.6 °F 12.2 °F 74% 30.18 in 10.0 mi NW 12.7 mph - N/A   Overcast
10:55 AM 19.4 °F 7.2 °F 12.2 °F 74% 30.18 in 10.0 mi North 11.5 mph 19.6 mph N/A   Overcast
11:15 AM 21.2 °F 10.9 °F 12.2 °F 68% 30.18 in 10.0 mi North 9.2 mph 17.3 mph N/A   Overcast
11:35 AM 21.2 °F 8.3 °F 12.2 °F 68% 30.18 in 10.0 mi NW 13.8 mph 17.3 mph N/A   Mostly Cloudy
11:55 AM 21.2 °F 8.9 °F 12.2 °F 68% 30.19 in 10.0 mi NNW 12.7 mph 18.4 mph N/A   Partly Cloudy
12:15 PM 24.8 °F 12.9 °F 14.0 °F 64% 30.19 in 10.0 mi NNW 13.8 mph 17.3 mph N/A   Scattered Clouds
12:35 PM 24.8 °F 14.6 °F 14.0 °F 64% 30.18 in 10.0 mi North 10.4 mph 17.3 mph N/A   Partly Cloudy
12:55 PM 24.8 °F 14.0 °F 14.0 °F 64% 30.18 in 10.0 mi NNW 11.5 mph - N/A   Partly Cloudy
1:15 PM 26.6 °F 16.2 °F 14.0 °F 59% 30.18 in 10.0 mi NNW 11.5 mph 17.3 mph N/A   Partly Cloudy
1:35 PM 26.6 °F 15.7 °F 15.8 °F 64% 30.16 in 10.0 mi NNW 12.7 mph - N/A   Partly Cloudy
1:55 PM 28.4 °F 19.7 °F 15.8 °F 59% 30.16 in 10.0 mi NNW 9.2 mph 17.3 mph N/A   Partly Cloudy
2:15 PM 28.4 °F 19.1 °F 15.8 °F 59% 30.15 in 10.0 mi NNW 10.4 mph - N/A   Partly Cloudy
2:35 PM 28.4 °F 20.4 °F 17.6 °F 64% 30.13 in 10.0 mi North 8.1 mph 16.1 mph N/A   Partly Cloudy
2:55 PM 28.4 °F 19.1 °F 17.6 °F 64% 30.13 in 10.0 mi NNW 10.4 mph 18.4 mph N/A   Clear
3:15 PM 30.2 °F 22.6 °F 15.8 °F 55% 30.13 in 10.0 mi NNW 8.1 mph 16.1 mph N/A   Clear
3:35 PM 30.2 °F 24.3 °F 17.6 °F 60% 30.12 in 10.0 mi NNW 5.8 mph 19.6 mph N/A   Partly Cloudy
3:55 PM 30.2 °F 20.8 °F 17.6 °F 60% 30.12 in 10.0 mi NNW 11.5 mph - N/A   Partly Cloudy
4:15 PM 30.2 °F 19.8 °F 17.6 °F 60% 30.13 in 10.0 mi NNW 13.8 mph - N/A   Partly Cloudy
4:35 PM 30.2 °F 21.3 °F 17.6 °F 60% 30.14 in 10.0 mi NW 10.4 mph - N/A   Mostly Cloudy
4:55 PM 30.2 °F 23.4 °F 17.6 °F 60% 30.13 in 10.0 mi NW 6.9 mph - N/A   Mostly Cloudy
5:15 PM 30.2 °F 23.4 °F 17.6 °F 60% 30.12 in 10.0 mi NNW 6.9 mph - N/A   Scattered Clouds
5:35 PM 30.2 °F 20.8 °F 17.6 °F 60% 30.12 in 10.0 mi North 11.5 mph - N/A   Partly Cloudy
5:55 PM 28.4 °F 19.1 °F 17.6 °F 64% 30.11 in 10.0 mi North 10.4 mph - N/A   Partly Cloudy
6:15 PM 28.4 °F 19.1 °F 19.4 °F 69% 30.11 in 10.0 mi North 10.4 mph - N/A   Partly Cloudy
6:35 PM 28.4 °F 19.7 °F 19.4 °F 69% 30.12 in 10.0 mi North 9.2 mph - N/A   Clear
6:55 PM 28.4 °F 19.1 °F 19.4 °F 69% 30.13 in 10.0 mi NNW 10.4 mph - N/A   Clear
7:15 PM 28.4 °F 19.7 °F 19.4 °F 69% 30.15 in 10.0 mi NNW 9.2 mph - N/A   Clear
7:35 PM 28.4 °F 19.1 °F 19.4 °F 69% 30.16 in 10.0 mi NW 10.4 mph - N/A   Scattered Clouds
7:55 PM 28.4 °F 19.1 °F 19.4 °F 69% 30.17 in 10.0 mi NW 10.4 mph - N/A   Mostly Cloudy
8:15 PM 28.4 °F 19.7 °F 19.4 °F 69% 30.17 in 10.0 mi NW 9.2 mph - N/A   Mostly Cloudy
8:35 PM 28.4 °F 19.1 °F 19.4 °F 69% 30.17 in 10.0 mi NNW 10.4 mph - N/A   Overcast
8:55 PM 28.4 °F 21.2 °F 19.4 °F 69% 30.18 in 10.0 mi North 6.9 mph - N/A   Overcast
9:15 PM 28.4 °F 19.1 °F 17.6 °F 64% 30.19 in 10.0 mi NNE 10.4 mph - N/A   Overcast
9:35 PM 26.6 °F 17.5 °F 17.6 °F 69% 30.19 in 10.0 mi NNE 9.2 mph - N/A   Overcast
9:55 PM 26.6 °F 17.5 °F 17.6 °F 69% 30.19 in 10.0 mi NNE 9.2 mph - N/A   Mostly Cloudy
10:15 PM 26.6 °F 17.5 °F 17.6 °F 69% 30.18 in 10.0 mi NNE 9.2 mph - N/A   Partly Cloudy
10:35 PM 26.6 °F 18.2 °F 17.6 °F 69% 30.19 in 10.0 mi NNE 8.1 mph - N/A   Clear
10:55 PM 26.6 °F 17.5 °F 17.6 °F 69% 30.18 in 10.0 mi NE 9.2 mph - N/A   Clear
11:15 PM 24.8 °F 15.3 °F 17.6 °F 74% 30.19 in 10.0 mi NE 9.2 mph - N/A   Mostly Cloudy
11:35 PM 24.8 °F 15.3 °F 17.6 °F 74% 30.19 in 10.0 mi NE 9.2 mph - N/A   Overcast
11:55 PM 24.8 °F 14.6 °F 17.6 °F 74% 30.19 in 10.0 mi NE 10.4 mph - N/A   Mostly Cloudy